[TLELIST] Archives

 

Current TLEs

August 10th 2006 PDT

HST 1 20580U 90037B 06221.98754753 .00000332 00000-0 12971-4 0 6734 2 20580 028.4684 059.1610 0003446 038.3686 321.7146 15.00073133693186 ISS (ZARYA) 1 25544U 98067A 06221.86442130 .00011830 00000-0 76916-4 0 4686 2 25544 051.6332 270.9168 0007979 171.1849 173.2120 15.76446519441629 CXO 1 25867U 99040B 06223.29166667 .00000000 00000-0 00000+0 0 9591 2 25867 059.9865 095.9684 5860295 289.5090 000.1529 00.37802834 1217 ____________________________________________________________________ These 2-Line ...Continue Reading

Current TLEs

August 9th 2006 PDT

HST 1 20580U 90037B 06220.65689290 .00000343 00000-0 13851-4 0 6729 2 20580 028.4681 067.8370 0003380 022.7504 337.3222 15.00072701692980 ISS (ZARYA) 1 25544U 98067A 06221.45895833 .00014491 00000-0 93271-4 0 4660 2 25544 051.6328 273.0087 0008174 169.4129 032.3601 15.76444050441567 CXO 1 25867U 99040B 06223.29166667 .00000000 00000-0 00000+0 0 9591 2 25867 059.9865 095.9684 5860295 289.5090 000.1529 00.37802834 1217 ____________________________________________________________________ These 2-Line ...Continue Reading

Current TLEs

August 8th 2006 PDT

HST 1 20580U 90037B 06219.92503249 +.00000350 +00000-0 +14388-4 0 06731 2 20580 028.4680 072.6080 0003287 013.9882 346.0791 15.00072483692871 ISS (ZARYA) 1 25544U 98067A 06219.89907407 +.00014994 +00000-0 +96519-4 0 04606 2 25544 051.6345 281.0465 0007989 163.9119 179.3885 15.76408082441310 CXO 1 25867U 99040B 06220.66666667 .00000000 00000-0 00000+0 0 9583 2 25867 059.9904 096.0328 5847483 289.5389 002.8331 00.37787759 1211 ____________________________________________________________________ These 2-Line ...Continue Reading

Current TLEs

August 7th 2006 PDT

HST 1 20580U 90037B 06218.66091023 +.00000374 +00000-0 +16268-4 0 06716 2 20580 028.4684 080.8490 0003311 359.6606 000.3991 15.00072210692682 ISS (ZARYA) 1 25544U 98067A 06218.95041667 +.00015633 +00000-0 +10055-3 0 04565 2 25544 051.6348 285.9355 0008235 160.4265 195.6115 15.76382904441167 CXO 1 25867U 99040B 06220.66666667 .00000000 00000-0 00000+0 0 9583 2 25867 059.9904 096.0328 5847483 289.5389 002.8331 00.37787759 1211 ____________________________________________________________________ These 2-Line ...Continue Reading

Current TLEs

August 6th 2006 PDT

HST 1 20580U 90037B 06217.99558249 .00000375 00000-0 16390-4 0 6705 2 20580 028.4685 085.1855 0003331 352.9498 007.1048 15.00071932692580 ISS (ZARYA) 1 25544U 98067A 06218.46500443 .00014963 00000-0 96524-4 0 4520 2 25544 051.6339 288.4369 0007665 160.5243 318.9502 15.76364328441095 CXO 1 25867U 99040B 06218.00000000 .00000000 00000-0 00000+0 0 9570 2 25867 059.9963 096.0318 5838238 289.6604 359.7542 00.37785474 1214 ____________________________________________________________________ These 2-Line ...Continue Reading

Current TLEs

August 5th 2006 PDT

HST 1 20580U 90037B 06216.79799271 .00000399 00000-0 18269-4 0 6695 2 20580 028.4681 092.9962 0003318 337.4348 022.6122 15.00071608692404 ISS (ZARYA) 1 25544U 98067A 06217.50720413 .00012666 00000-0 82485-4 0 4467 2 25544 051.6345 293.3728 0008002 155.5943 284.8009 15.76325116440941 CXO 1 25867U 99040B 06218.00000000 .00000000 00000-0 00000+0 0 9570 2 25867 059.9963 096.0318 5838238 289.6604 359.7542 00.37785474 1214 ____________________________________________________________________ These 2-Line ...Continue Reading

Current TLEs

August 4th 2006 PDT

HST 1 20580U 90037B 06214.93507440 +.00000353 +00000-0 +14648-4 0 06837 2 20580 028.4675 105.1423 0003312 316.2708 043.7616 15.00070372692123 ISS (ZARYA) 1 25544U 98067A 06216.49115757 .00012475 00000-0 81399-4 0 4408 2 25544 051.6343 298.6079 0008135 150.8782 279.8368 15.76297350440784 CXO 1 25867U 99040B 06215.33333333 .00000000 00000-0 00000+0 0 9560 2 25867 059.9819 096.0365 5836040 289.7801 356.6435 00.37793982 1215 ____________________________________________________________________ These 2-Line ...Continue Reading

Current TLEs

August 3rd 2006 PDT

HST 1 20580U 90037B 06214.93507440 +.00000353 +00000-0 +14648-4 0 06837 2 20580 028.4675 105.1423 0003312 316.2708 043.7616 15.00070372692123 ISS (ZARYA) 1 25544U 98067A 06215.48347572 .00012734 00000-0 83091-4 0 4340 2 25544 051.6344 303.8010 0008193 146.8831 321.7552 15.76272143440621 CXO 1 25867U 99040B 06215.33333333 .00000000 00000-0 00000+0 0 9560 2 25867 059.9819 096.0365 5836040 289.7801 356.6435 00.37793982 1215 ____________________________________________________________________ These 2-Line ...Continue Reading

Current TLEs

August 2nd 2006 PDT

HST 1 20580U 90037B 06213.93708185 +.00000367 +00000-0 +15750-4 0 06699 2 20580 028.4674 111.6470 0003362 305.5655 054.4621 15.00070059691972 ISS (ZARYA) 1 25544U 98067A 06214.46005260 .00012605 00000-0 82399-4 0 4259 2 25544 051.6347 309.0764 0008037 143.0594 274.2033 15.76244213440465 CXO 1 25867U 99040B 06215.33333333 .00000000 00000-0 00000+0 0 9560 2 25867 059.9819 096.0365 5836040 289.7801 356.6435 00.37793982 1215 ____________________________________________________________________ These 2-Line ...Continue Reading

Current TLEs

August 1st 2006 PDT

HST 1 20580U 90037B 06211.94109716 +.00000318 +00000-0 +11910-4 0 06817 2 20580 028.4675 124.6584 0003420 283.4046 076.6160 15.00068987691674 ISS (ZARYA) 1 25544U 98067A 06213.31806940 .00013758 00000-0 89635-4 0 4177 2 25544 051.6352 314.9590 0008443 138.9814 273.8127 15.76217819440283 CXO 1 25867U 99040B 06212.70833333 .00000000 00000-0 00000+0 0 9552 2 25867 059.9606 096.0842 5835000 289.8403 359.2222 00.37800267 1211 ____________________________________________________________________ These 2-Line ...Continue Reading
  • This mailing list is a public mailing list - anyone may join or leave, at any time.
  • This mailing list is announce-only.

International Space Station (ISS) / Hubble Space Telescope (HST) / Chandra X-Ray Observatory Orbital Data via EMAIL

Privacy Policy:

Private list